Back to catalog

COSMOS 1375 DEB

AliveLEO
NORAD 16386·DEBRIS·🇷🇺 Russia

Launched Jun 6, 1982 from Plesetsk Cosmodrome

Loading…

Next Passes (next 24 hours)

TLE

FreshSource: Space-Track

Epoch: Sep 14, 2026, 06:36 UTC

1 16386U 82055AA  26257.27554697 -.00000041  00000-0  43673-4 0  9994
2 16386  65.8364 161.9449 0051943 298.2419 146.4003 13.69761239214461

Track COSMOS 1375 DEB in real time with AllMySat

Download on the App Store